| time (UTC) | temp F | wind direction | speed knots | gust knots | rain 1hr in | rain 24hr in | rain mn in | humidity % | barometer mb |
| 20260510083051 | 48 | 193 | 0.0 | 1.7 | 0.00 | 0.01 | 0.01 | 65 | 1042.3 |
| 20260510081553 | 49 | 193 | 0.0 | 0.9 | 0.00 | 0.01 | 0.01 | 65 | 1042.2 |
| 20260510080047 | 50 | 193 | 0.0 | 0.9 | 0.00 | 0.01 | 0.01 | 64 | 1042.0 |
| 20260510074547 | 51 | 192 | 0.0 | 1.7 | 0.00 | 0.01 | 0.01 | 63 | 1041.8 |
| 20260510073046 | 51 | 192 | 0.9 | 3.5 | 0.00 | 0.01 | 0.01 | 63 | 1041.6 |
| 20260510071546 | 52 | 177 | 0.0 | 3.5 | 0.00 | 0.01 | 0.01 | 62 | 1041.6 |
| 20260510070050 | 53 | 227 | 0.9 | 5.2 | 0.00 | 0.01 | 0.01 | 62 | 1041.6 |
| 20260510064548 | 53 | 121 | 0.0 | 4.3 | 0.00 | 0.01 | 0.01 | 61 | 1041.5 |
| 20260510063048 | 54 | 153 | 0.0 | 4.3 | 0.00 | 0.01 | 0.01 | 60 | 1041.3 |
| 20260510061543 | 54 | 153 | 0.0 | 5.2 | 0.00 | 0.01 | 0.01 | 60 | 1041.2 |
| 20260510060044 | 55 | 137 | 0.9 | 4.3 | 0.00 | 0.01 | 0.01 | 60 | 1041.2 |
| 20260510054542 | 55 | 202 | 1.7 | 6.1 | 0.00 | 0.01 | 0.01 | 59 | 1041.0 |
| 20260510053041 | 55 | 215 | 1.7 | 5.2 | 0.00 | 0.01 | 0.01 | 59 | 1041.0 |
| 20260510051546 | 56 | 232 | 1.7 | 7.0 | 0.00 | 0.01 | 0.01 | 59 | 1041.0 |
| 20260510050041 | 56 | 132 | 0.9 | 9.6 | 0.00 | 0.01 | 0.01 | 58 | 1041.0 |
| 20260510044539 | 57 | 89 | 2.6 | 8.7 | 0.00 | 0.01 | 0.01 | 57 | 1040.9 |
| 20260510043041 | 57 | 120 | 2.6 | 7.0 | 0.00 | 0.01 | 0.01 | 58 | 1040.9 |
| 20260510041537 | 57 | 200 | 2.6 | 7.8 | 0.00 | 0.01 | 0.01 | 58 | 1040.8 |
| 20260510040036 | 57 | 126 | 3.5 | 7.0 | 0.00 | 0.01 | 0.01 | 58 | 1041.0 |
| 20260510034541 | 56 | 114 | 1.7 | 7.0 | 0.00 | 0.01 | 0.01 | 59 | 1041.0 |
| 20260510033032 | 56 | 198 | 0.9 | 5.2 | 0.00 | 0.01 | 0.01 | 59 | 1041.2 |
| 20260510031532 | 56 | 195 | 2.6 | 7.8 | 0.00 | 0.01 | 0.01 | 59 | 1041.4 |
| 20260510030031 | 56 | 182 | 1.7 | 6.1 | 0.00 | 0.01 | 0.01 | 59 | 1041.6 |
| 20260510024530 | 56 | 183 | 1.7 | 5.2 | 0.00 | 0.01 | 0.01 | 60 | 1041.7 |
| 20260510023028 | 55 | 154 | 1.7 | 7.0 | 0.00 | 0.01 | 0.01 | 61 | 1041.9 |
| 20260510021526 | 55 | 209 | 2.6 | 7.0 | 0.00 | 0.01 | 0.01 | 62 | 1041.9 |
| 20260510020024 | 54 | 223 | 0.9 | 7.8 | 0.00 | 0.01 | 0.01 | 65 | 1042.0 |
| 20260510014519 | 54 | 124 | 1.7 | 7.0 | 0.00 | 0.01 | 0.01 | 70 | 1042.1 |
| 20260510013016 | 52 | 140 | 0.9 | 7.0 | 0.00 | 0.01 | 0.01 | 74 | 1042.4 |
| 20260510011525 | 51 | 150 | 1.7 | 7.8 | 0.00 | 0.01 | 0.01 | 76 | 1042.7 |
| 20260510010010 | 51 | 147 | 1.7 | 7.0 | 0.00 | 0.01 | 0.01 | 76 | 1042.7 |
| 20260510004512 | 50 | 153 | 1.7 | 5.2 | 0.00 | 0.01 | 0.01 | 76 | 1042.5 |
| 20260510003008 | 50 | 158 | 0.9 | 5.2 | 0.00 | 0.01 | 0.01 | 76 | 1042.6 |
| 20260510001506 | 50 | 167 | 0.9 | 6.1 | 0.00 | 0.01 | 0.01 | 76 | 1042.6 |
| 20260510000013 | 50 | 186 | 0.9 | 3.5 | 0.00 | 0.01 | 0.01 | 77 | 1042.6 |
| 20260509234504 | 50 | 183 | 0.9 | 6.1 | 0.00 | 0.01 | 0.01 | 77 | 1042.6 |
| 20260509233002 | 50 | 160 | 1.7 | 6.1 | 0.00 | 0.01 | 0.01 | 77 | 1042.5 |
| 20260509231500 | 50 | 156 | 1.7 | 4.3 | 0.01 | 0.01 | 0.01 | 77 | 1042.4 |
| 20260509230100 | 50 | 148 | 0.9 | 4.3 | 0.01 | 0.01 | 0.01 | 76 | 1042.4 |
| 20260509224558 | 50 | 191 | 0.0 | 7.0 | 0.01 | 0.01 | 0.01 | 76 | 1042.2 |
| 20260509223102 | 50 | 164 | 0.0 | 4.3 | 0.01 | 0.01 | 0.01 | 76 | 1042.2 |
| 20260509221552 | 50 | 203 | 0.0 | 2.6 | 0.00 | 0.00 | 0.00 | 76 | 1042.1 |
| 20260509220049 | 49 | 177 | 0.0 | 2.6 | 0.00 | 0.00 | 0.00 | 76 | 1041.8 |
| 20260509214546 | 49 | 147 | 0.9 | 3.5 | 0.00 | 0.00 | 0.00 | 76 | 1041.5 |
| 20260509213044 | 49 | 142 | 0.9 | 3.5 | 0.00 | 0.00 | 0.00 | 76 | 1041.3 |
| 20260509211544 | 49 | 185 | 0.0 | 3.5 | 0.00 | 0.00 | 0.00 | 76 | 1041.1 |
| 20260509210049 | 49 | 159 | 0.9 | 5.2 | 0.00 | 0.00 | 0.00 | 76 | 1040.9 |
| 20260509204549 | 49 | 186 | 0.9 | 6.1 | 0.00 | 0.00 | 0.00 | 76 | 1040.8 |
| 20260509203037 | 49 | 158 | 1.7 | 5.2 | 0.00 | 0.00 | 0.00 | 76 | 1040.8 |
| 20260509201538 | 50 | 128 | 0.9 | 4.3 | 0.00 | 0.00 | 0.00 | 76 | 1040.7 |
| 20260509200036 | 50 | 123 | 0.9 | 7.0 | 0.00 | 0.00 | 0.00 | 76 | 1040.5 |
| 20260509194536 | 50 | 152 | 0.0 | 2.6 | 0.00 | 0.00 | 0.00 | 76 | 1040.4 |
| 20260509193031 | 50 | 123 | 2.6 | 7.8 | 0.00 | 0.00 | 0.00 | 76 | 1040.1 |
| 20260509191529 | 50 | 213 | 0.9 | 7.0 | 0.00 | 0.00 | 0.00 | 76 | 1040.0 |
| 20260509190032 | 50 | 205 | 0.0 | 5.2 | 0.00 | 0.01 | 0.00 | 76 | 1039.9 |
| 20260509184541 | 50 | 203 | 0.9 | 4.3 | 0.00 | 0.01 | 0.00 | 76 | 1039.8 |
| 20260509183029 | 50 | 201 | 0.9 | 4.3 | 0.00 | 0.01 | 0.00 | 76 | 1039.8 |
| 20260509181525 | 50 | 164 | 0.9 | 4.3 | 0.00 | 0.01 | 0.00 | 75 | 1039.8 |
| 20260509180024 | 50 | 119 | 0.0 | 3.5 | 0.00 | 0.01 | 0.00 | 76 | 1039.7 |
| 20260509174523 | 51 | 205 | 0.9 | 4.3 | 0.00 | 0.01 | 0.00 | 75 | 1039.7 |
| 20260509173021 | 51 | 175 | 0.9 | 7.8 | 0.00 | 0.01 | 0.00 | 75 | 1039.7 |
| 20260509171521 | 51 | 148 | 0.0 | 4.3 | 0.00 | 0.01 | 0.00 | 75 | 1039.7 |
| 20260509170020 | 51 | 182 | 1.7 | 5.2 | 0.00 | 0.01 | 0.00 | 75 | 1039.7 |
| 20260509164518 | 51 | 180 | 0.9 | 6.1 | 0.00 | 0.01 | 0.00 | 75 | 1039.8 |
| 20260509163022 | 51 | 150 | 0.0 | 5.2 | 0.00 | 0.01 | 0.00 | 75 | 1039.8 |
| 20260509161516 | 51 | 129 | 0.9 | 5.2 | 0.00 | 0.01 | 0.00 | 75 | 1039.7 |
| 20260509160016 | 51 | 194 | 0.9 | 3.5 | 0.00 | 0.01 | 0.00 | 74 | 1039.9 |
| 20260509154516 | 51 | 181 | 1.7 | 4.3 | 0.00 | 0.01 | 0.00 | 74 | 1039.9 |
| 20260509153029 | 51 | 150 | 1.7 | 3.5 | 0.00 | 0.01 | 0.00 | 74 | 1040.0 |
| 20260509151514 | 51 | 207 | 1.7 | 4.3 | 0.00 | 0.01 | 0.00 | 74 | 1040.0 |
| 20260509150016 | 51 | 180 | 0.9 | 3.5 | 0.00 | 0.01 | 0.00 | 73 | 1040.0 |
| 20260509144524 | 51 | 169 | 1.7 | 7.0 | 0.00 | 0.01 | 0.00 | 73 | 1039.9 |
| 20260509143013 | 51 | 197 | 1.7 | 7.0 | 0.00 | 0.01 | 0.00 | 73 | 1040.0 |
| 20260509141515 | 51 | 193 | 2.6 | 7.0 | 0.00 | 0.01 | 0.00 | 72 | 1039.8 |
| 20260509140008 | 51 | 159 | 0.9 | 5.2 | 0.00 | 0.01 | 0.01 | 72 | 1040.0 |
| 20260509134506 | 51 | 233 | 1.7 | 7.0 | 0.00 | 0.01 | 0.01 | 72 | 1039.8 |
| 20260509133013 | 51 | 159 | 2.6 | 7.0 | 0.00 | 0.01 | 0.01 | 71 | 1040.0 |
| 20260509131506 | 51 | 192 | 1.7 | 5.2 | 0.00 | 0.01 | 0.01 | 71 | 1040.2 |
| 20260509130005 | 51 | 108 | 1.7 | 5.2 | 0.00 | 0.01 | 0.01 | 70 | 1040.2 |
| 20260509124506 | 51 | 160 | 1.7 | 7.8 | 0.00 | 0.01 | 0.01 | 70 | 1040.1 |
| 20260509123003 | 51 | 188 | 1.7 | 4.3 | 0.00 | 0.01 | 0.01 | 69 | 1040.4 |
| 20260509121508 | 50 | 96 | 1.7 | 6.1 | 0.00 | 0.01 | 0.01 | 69 | 1040.2 |
| 20260509120003 | 50 | 184 | 0.0 | 2.6 | 0.00 | 0.01 | 0.01 | 69 | 1040.2 |
| 20260509114501 | 50 | 184 | 0.0 | 2.6 | 0.00 | 0.01 | 0.01 | 68 | 1040.0 |
| 20260509113106 | 50 | 184 | 0.9 | 3.5 | 0.00 | 0.01 | 0.01 | 68 | 1039.9 |
| 20260509111607 | 50 | 186 | 1.7 | 7.8 | 0.00 | 0.01 | 0.01 | 68 | 1039.9 |
| 20260509110106 | 50 | 125 | 1.7 | 7.0 | 0.00 | 0.01 | 0.01 | 67 | 1039.9 |
| 20260509104558 | 50 | 176 | 0.0 | 3.5 | 0.00 | 0.01 | 0.01 | 67 | 1039.8 |
| 20260509103105 | 51 | 177 | 0.0 | 0.0 | 0.00 | 0.01 | 0.01 | 67 | 1039.8 |
| 20260509101623 | 51 | 177 | 0.0 | 0.9 | 0.00 | 0.01 | 0.01 | 67 | 1039.9 |
| 20260509100058 | 51 | 177 | 0.9 | 3.5 | 0.00 | 0.01 | 0.01 | 66 | 1039.8 |
| 20260509094603 | 51 | 177 | 0.0 | 3.5 | 0.00 | 0.01 | 0.01 | 66 | 1039.9 |
| 20260509093105 | 51 | 148 | 0.0 | 0.0 | 0.00 | 0.01 | 0.01 | 65 | 1039.8 |
| 20260509091602 | 51 | 148 | 0.0 | 0.0 | 0.00 | 0.01 | 0.01 | 65 | 1039.7 |
| 20260509084553 | 52 | 148 | 0.0 | 0.0 | 0.00 | 0.01 | 0.01 | 64 | 1039.6 |